#timestamp,LO_Frequency,Hit,StdDev 
1674158415.5,286047002.4,P
1674158435.4,286047002.3,P
1674158455.2,286047002.6,Y
1674158475.0,286046998.7,P
1674158475.9,286046998.7,N
1674158495.8,286047000.6,N
1674158515.6,286047000.9,N
1674158535.4,286046998.4,N
1674158555.3,286046998.1,N
1674158575.1,286047000.9,N
1674158576.0,286047000.9,N
1674158595.8,286046999.7,N
1674158615.7,286047000.2,N
1674158635.5,286047002.5,N
1674158655.3,286047001.8,N
1674158675.2,286047003.5,N
1674158695.9,286047003.4,N
1674158715.7,286047003.3,N
1674158735.6,286047005.1,N
1674158755.4,286047005.5,N
1674158775.2,286047004.4,N
1674158795.0,286047001.5,N
1674158796.0,286047001.5,N
1674158815.8,286047004.0,N
1674158835.6,286047003.1,N
1674158855.4,286047003.1,N
1674158875.3,286047002.9,N
1674158895.1,286047007.2,Y
1674158915.8,286047005.8,P
1674158935.7,286047004.8,N
1674158955.5,286047004.8,N
1674158975.4,286047007.4,Y
1674158995.2,286047004.0,P
1674159015.0,286047001.3,P
1674159015.9,286047001.3,N
1674159035.8,286047004.4,Y
1674159055.6,286047000.5,P
1674159075.4,286047000.2,N
1674159095.3,286047000.1,N
1674159115.1,286047004.3,Y
1674159116.0,286047004.3,P
1674159135.8,286047001.6,N
1674159155.7,286047001.4,N
1674159175.5,286047004.2,Y
1674159195.3,286047001.5,P
1674159215.2,286047001.6,P
1674159235.9,286047004.2,P
1674159255.7,286047002.5,N
1674159275.6,286047003.1,Y
1674159295.4,286047000.2,P
1674159315.2,286047002.3,N
1674159335.1,286047002.4,N
1674159336.0,286047002.4,N
1674159355.8,286047001.8,N
1674159375.6,286047004.1,Y
1674159395.5,286047001.8,P
1674159415.3,286047001.3,P
1674159435.1,286047002.2,P
1674159455.9,286047001.6,Y
1674159475.7,286047000.5,P
1674159495.5,286047000.2,N
1674159515.4,286047002.0,N
1674159535.2,286047003.9,Y
1674159555.0,286047001.8,P
1674159555.9,286047001.8,P
1674159575.8,286047004.4,P
1674159595.6,286047002.6,N
1674159615.4,286047004.2,Y
1674159635.3,286047000.3,P
1674159655.1,286046999.1,N
1674159675.8,286047003.4,N
1674159695.7,286047004.3,N
1674159715.5,286047000.5,N
1674159735.3,286047003.1,N
1674159755.2,286047001.3,N
1674159775.9,286047003.9,N
1674159795.7,286047001.3,N
1674159815.6,286047003.6,N
1674159835.4,286047001.3,N
1674159855.2,286047004.9,Y
1674159875.1,286047002.3,P
1674159876.0,286047002.3,P
1674159895.8,286047002.4,P
1674159915.6,286047003.0,Y
1674159935.5,286047001.3,P
1674159955.3,286046999.0,N
1674159975.1,286046999.8,N
1674159995.9,286047001.0,N
1674160015.7,286046998.1,N
1674160035.5,286047001.9,N
1674160055.4,286047002.1,N
1674160075.2,286047003.6,N
1674160095.0,286047000.1,N
1674160095.9,286047000.1,N
1674160115.8,286047001.6,N
1674160135.6,286047002.3,N
1674160155.4,286047005.8,Y
1674160175.3,286047003.8,P
1674160195.1,286047002.3,N
1674160215.8,286046998.1,N
1674160235.7,286046999.3,N
1674160255.5,286046999.4,N
1674160275.3,286046999.3,N
1674160295.2,286046998.8,N
1674160315.9,286046999.4,N
1674160335.7,286046998.7,N
1674160355.6,286046998.4,N
1674160375.4,286046998.7,N
1674160395.2,286046996.7,N
1674160415.1,286046997.0,N
1674160416.0,286046997.0,N
1674160435.8,286046999.3,N
1674160455.6,286046997.2,N
1674160475.5,286046996.6,N
1674160495.3,286046997.9,N
1674160515.1,286046995.5,N
1674160535.9,286046997.6,N
1674160555.7,286046995.1,N
1674160575.5,286046995.1,N
1674160595.4,286046995.5,N
1674160615.2,286046996.4,N
1674160635.0,286046993.5,Y
1674160635.9,286046993.5,P
1674160655.8,286046995.7,N
1674160675.6,286046996.2,N
1674160695.4,286046996.1,N
1674160715.3,286046993.7,Y
1674160735.1,286046999.5,P
1674160736.0,286046999.5,N
1674160755.8,286046996.9,N
1674160775.7,286046999.6,N
1674160795.5,286046997.3,N
1674160815.3,286046997.7,N
1674160835.2,286046995.4,Y
1674160855.9,286046999.3,P
1674160875.7,286046999.4,N
1674160895.6,286046996.9,P
1674160915.4,286047011.9,Y
1674160935.2,286046999.4,P
1674160955.1,286046999.6,N
1674160956.0,286046999.6,N
1674160975.8,286046995.4,Y
1674160995.6,286046997.7,P
1674161015.5,286047011.9,P
1674161035.3,286046994.9,N
1674161055.1,286046997.7,N
1674161075.9,286046997.2,N
1674161095.7,286046994.9,N
1674161115.5,286046995.3,N
1674161135.4,286046995.8,N
1674161155.2,286046996.0,N
1674161175.0,286046995.5,N
1674161175.9,286046995.5,N
1674161195.8,286046996.0,N
1674161215.6,286046993.9,N
1674161235.4,286046991.7,N
1674161255.3,286046991.9,N
1674161275.1,286046992.2,N
1674161295.8,286046992.3,N
1674161315.7,286046990.1,N
1674161335.5,286046993.1,N
1674161355.3,286046990.3,N
1674161375.2,286046990.9,N
1674161395.9,286046988.5,N
1674161415.7,286046988.6,N
1674161435.6,286046989.1,N
1674161455.4,286046987.0,N
1674161475.2,286046988.1,N
1674161495.1,286046987.9,N
1674161496.0,286046987.9,N
1674161515.8,286046985.9,N
1674161535.6,286046986.3,N
1674161555.5,286046985.5,N
1674161575.3,286046985.4,N
1674161595.1,286046986.4,Y
1674161615.9,286046992.2,P
1674161635.7,286046993.2,P
1674161655.5,286046992.7,P
1674161675.4,286046997.3,Y
1674161695.2,286046999.8,P
1674161715.0,286046998.1,N
1674161715.9,286046998.1,N
1674161735.8,286046999.5,N
1674161755.6,286046997.1,N
1674161775.4,286046995.3,N
1674161795.3,286046999.4,N
1674161815.1,286046997.0,N
1674161835.8,286046997.5,N
1674161855.7,286046993.7,N
1674161875.5,286046993.0,Y
1674161895.3,286046999.0,P
1674161915.2,286046997.4,N
1674161935.9,286046997.6,N
1674161955.7,286046995.9,Y
1674161975.6,286046997.6,P
1674161995.4,286046997.2,P
